Language selection

My Weather Profile Weather Topics  | 

Strait of Georgia - north of Nanaimo: Past 24 Hour Conditions

 

Vancouver Int'l Airport

02:00 AM PDT 17 October 2021
Disclaimer

This table is a summary of hourly weather conditions for the past 24 hours.
Please note that these observations might not always be representative of weather conditions over their associated marine area.

Date / Time
(PDT)
Wind(knots) Conditions Visibility(km) Pressure(kPa) Air tempC) Relative humidity(%) Dew pointC)
17 October 2021
2:00 ESE 3 Light Rain 10 100.7 11 99 11
1:00 E 6 Light Rain 16 100.8 12 99 11
0:00 ENE 3 Light Rain 13 100.8 12 98 11
16 October 2021
23:00 NE 4 Light Rain 6 100.9 11 98 11
22:00 N 4 Light Rain 13 100.9 11 99 11
21:00 NNW 8 Rain 4 100.9 12 99 12
20:00 WNW 5 Heavy Rain 4 100.9 12 99 12
19:00 WNW 5 Light Rain 5 100.9 12 98 12
18:00 S 6 Mist 8 100.9 13 90 11
17:00 ESE 10 gust 17 Rain 13 100.9 14 85 12
16:00 E 10 Light Rain 16 101.0 14 87 12
15:00 E 9 Light Rain 16 101.0 14 87 12
14:00 E 11 Light Rain 16 101.1 13 93 12
13:00 ESE 15 Light Rain 16 101.2 13 93 12
12:00 E 12 Rain 13 101.2 12 96 12
11:00 E 14 Mist 3 101.3 12 95 11
10:00 E 14 gust 19 Mist 3 101.3 11 97 11
9:00 E 13 Light Rain 13 101.4 12 95 11
8:00 E 15 Light Rain 11 101.4 11 95 11
7:00 E 13 Light Rain 13 101.4 11 97 11
6:00 E 14 Rain 13 101.4 11 97 11
5:00 E 13 Light Rain 19 101.5 11 95 11
4:00 ENE 13 Rain 13 101.5 11 96 11
3:00 E 12 Light Rain 24 101.6 11 97 11
2:00 E 12 Light Rain 24 101.7 11 96 11

Zoom-in to make a selection

Map of Pacific - Georgia Basin marine weather areas Sentry Shoal - 46131 Halibut Bank - 46146 La Perouse Bank - 46206 Georgia Strait - 46303 English Bay - 46304 Discovery Island Esquimalt Harbour Kelp Reefs Malahat Race Rocks Lightstation Saturna Island Sheringham Point University of Victoria Victoria Gonzales Victoria Int'l Airport Ballenas Islands Campbell River Airport Comox Airport Entrance Island Fanny Island Nanaimo Airport Sisters Islets Estevan Point Port Alberni Tofino Airport Grief Point Howe Sound - Pam Rocks Powell River Airport Sechelt Squamish Airport Point Atkinson Sand Heads Lightstation Tsawwassen Ferry Terminal Vancouver Int'l Airport Vancouver Harbour West Vancouver
Legend:
buoy Buoy
land station Land Station

Pacific - Georgia Basin Area

Another Region

What we are doing

Date modified: